Regional Weather Roundup
Issued by NWS

Home | Current Version | Previous Version | Text Only | Print | Product List | Glossary Off
Versions: 1 2 3 4 5 6 7 8 9 10 11 12 13 14 15 16 17 18 19 20 21 22 23 24 25 26 27 28 29 30 31 32 33 34 35 36 37 38 39 40 41 42 43 44 45 46 47 48

000
ASUS45 KPSR 221710
RWRAZ

ARIZONA REGIONAL HOURLY WEATHER ROUNDUP
NATIONAL WEATHER SERVICE TUCSON AZ
1000 AM MST THU JUN 22 2017

NOTE: FAIR INDICATES FEW OR NO CLOUDS BELOW 12,000 FEET WITH NO
SIGNIFICANT WEATHER AND/OR OBSTRUCTIONS TO VISIBILITY.

AZZ001>003-036-221800-
NORTHWEST ARIZONA

CITY           SKY/WX    TMP DP  RH WIND       PRES   REMARKS
BULLHEAD CITY  SUNNY    102  46  15 SW8       29.68F
KINGMAN        SUNNY     99  34  10 S13       29.91S
$$

AZZ004>008-015-016-018-221800-
NORTH CENTRAL ARIZONA

CITY           SKY/WX    TMP DP  RH WIND       PRES   REMARKS
GRAND CANYON   SUNNY     87  22   9 W9G22     30.17F
PRESCOTT       SUNNY     96  24   7 W14       30.05S
FLAGSTAFF      SUNNY     86  28  12 W10G24    30.20S
PAYSON         SUNNY     90  37  15 VRB5      30.10S
PAGE           SUNNY     94  29  10 E5        29.93S
$$

AZZ009>014-017-221800-
NORTHEAST ARIZONA

CITY           SKY/WX    TMP DP  RH WIND       PRES   REMARKS
WINSLOW        SUNNY     99  25   7 NW5       30.01F
SAINT JOHNS    SUNNY     94  26   9 NW9G18    30.07S
WINDOW ROCK    MOSUNNY   92  29  10 W12       30.15S
SHOW LOW       SUNNY     86  27  11 NW7       30.17S
$$

AZZ023-221800-
GREATER PHOENIX AREA

CITY           SKY/WX    TMP DP  RH WIND       PRES   REMARKS
PHOENIX        MOSUNNY   98  51  20 CALM      29.76R
BUCKEYE        SUNNY     99  54  22 SW9       29.77R
GLENDALE       MOSUNNY   99  54  22 S12       29.78S
LUKE AFB       SUNNY     99  53  21 SW9G16    29.75S
DEER VALLEY    SUNNY     97  51  21 VRB5      29.78S
SCOTTSDALE     SUNNY     97  49  19 VRB6      29.80F
MESA-FALCON    MOSUNNY  100  54  20 VRB6      29.79S
CHANDLER       SUNNY     99  50  19 VRB6      29.77S
$$

AZZ027-028-221800-
SOUTHWEST MARICOPA COUNTY AND PINAL COUNTY

CITY           SKY/WX    TMP DP  RH WIND       PRES   REMARKS
CASA GRANDE      N/A     99  51  19 VRB5      29.80  HAZE
$$

AZZ503-504-507>509-221800-
SOUTHEAST ARIZONA

CITY           SKY/WX    TMP DP  RH WIND       PRES   REMARKS
TUCSON         MOSUNNY   98  54  22 CALM      29.89S
DAVIS-MONTHAN  SUNNY     98  54  22 W3        29.87F
RYAN FIELD     SUNNY     99  55  23 W12       29.87S
NOGALES        MOSUNNY   92  58  31 MISG      30.00F
SIERRA VISTA   PTSUNNY   94  46  18 NW13      30.04F
DOUGLAS        SUNNY     95  48  20 NW8       29.98F
SAFFORD        SUNNY     99  43  14 NW15G23   29.86F
$$

AZZ020-021-025-026-031-221800-
SOUTHWEST ARIZONA

CITY           SKY/WX    TMP DP  RH WIND       PRES   REMARKS
YUMA           SUNNY     96  64  34 S14       29.70S
$$

CAZ031-033-041-043-047-048-061-221800-
SOUTHERN CALIFORNIA

CITY           SKY/WX    TMP DP  RH WIND       PRES   REMARKS
DOWNTOWN L.A.  NOT AVBL
L.A. AIRPORT   CLOUDY    66  62  87 VRB6      29.83R FOG
SAN DIEGO      CLOUDY    64  60  87 S9        29.86S
BURBANK        SUNNY     71  59  65 SE10      29.82R
ONTARIO        SUNNY     75  61  61 SW7       29.82R HAZE
RIVERSIDE      SUNNY     74  62  66 W6        29.82R
PALM SPRINGS   SUNNY     93  64  38 CALM      29.75S
EL CENTRO NAS  SUNNY     90  70  51 VRB3      29.70R
IMPERIAL       SUNNY     92  73  53 E5        29.68R HX 100
BLYTHE         SUNNY     98  61  29 S16       29.70S
$$

NVZ020-UTZ003-221800-
SOUTHERN NEVADA-UTAH

CITY           SKY/WX    TMP DP  RH WIND       PRES   REMARKS
LAS VEGAS      SUNNY    101  26   7 CALM      29.78S
SALT LAKE CITY MOSUNNY   80  36  20 N16       30.05S
$$

NMZ009-TXZ055-221800-
NEW MEXICO-WEST TEXAS

CITY           SKY/WX    TMP DP  RH WIND       PRES   REMARKS
ALBUQUERQUE    SUNNY     87  45  23 W7        30.02F
EL PASO        MOSUNNY   96  48  19 W13       29.89F
$$


........................KEY........................
SKY/WX - SKY CONDITION/WEATHER
TMP    - TEMPERATURE IN FAHRENHEIT
DP     - DEWPOINT IN FAHRENHEIT
RH     - RELATIVE HUMIDITY IN PERCENT
WIND   - DIRECTION AND SPEED IN MILES PER HOUR (MPH)
VRB    - VARIABLE WIND DIRECTION
PRES   - MEAN SEA LEVEL PRESSURE IN INCHES OF MERCURY
         F - FALLING PRESSURE   R - RISING PRESSURE
         S - STEADY PRESSURE
VSB    - VISIBILITY IN MILES
HX     - HEAT INDEX IN FAHRENHEIT
WCI    - WIND CHILL INDEX IN FAHRENHEIT
TC     - TEMPERATURE IN CELSIUS WHICH IS ALSO KNOWN AS
         TEMPERATURE IN CENTIGRADE
AFB    - AIR FORCE BASE
         LUKE AFB IS LUKE AIR FORCE BASE
         DAVIS-MONTHAN IS DAVIS-MONTHAN AIR FORCE BASE
NAS    - NAVAL AIR STATION
         EL CENTRO NAS IS EL CENTRO NAVAL AIR STATION
N/A    - NOT AVAILABLE





USA.gov is the U.S. government's official web portal to all federal, state and local government web resources and services.